Vorticity
3 4 4 6 7 8 10 10 10 11 4 6 6 5 6 3 3 2 13 20 41 14 -0 7 8 13 10 7 5 10 12 6 13 10 7 8 7 7 7 6 7 8 9 10
4 4 4 5 6 8 11 9 11 5 7 7 9 3 5 3 1 1 19 40 43 5 2 9 13 11 7 7 9 3 14 6 7 9 8 5 7 8 7 7 6 6 5 7
5 4 4 6 6 9 11 11 7 8 6 3 6 5 5 4 2 7 16 39 28 3 10 9 14 8 2 7 9 7 8 10 8 5 9 10 9 9 8 10 10 12 11 10
6 4 4 5 7 9 10 12 7 4 4 6 4 4 6 3 3 12 35 43 14 3 5 13 5 4 7 6 11 7 9 6 4 9 9 9 8 7 10 9 8 10 25 22
6 5 4 7 7 7 5 12 9 1 6 5 3 4 5 4 6 15 50 33 3 9 6 15 6 3 8 9 8 9 5 7 9 10 11 7 9 8 11 16 11 24 36 37
7 5 6 7 7 7 6 11 10 2 8 5 4 4 6 3 6 23 54 13 2 8 7 14 6 3 8 8 7 10 5 6 12 13 9 10 1 14 15 12 19 36 29 16
6 5 7 7 8 7 6 9 8 4 9 3 5 4 7 1 3 25 55 7 2 5 7 13 7 5 8 8 9 8 5 12 12 6 5 -5 15 10 16 9 38 31 18 13
5 6 7 8 7 7 6 8 7 3 8 1 5 4 7 2 2 24 52 -0 2 6 7 11 6 5 9 7 11 5 6 14 11 4 2 8 13 14 17 14 28 25 30 33
6 7 7 9 7 9 5 8 6 3 10 1 3 4 9 3 3 19 48 1 8 6 13 6 6 5 8 8 11 5 12 10 6 5 4 4 4 15 17 13 24 19 23 27
7 10 9 8 8 9 7 8 7 3 9 1 2 3 9 2 2 24 61 3 10 7 17 5 5 6 6 10 8 5 15 10 6 4 6 0 6 10 20 14 39 24 21 27
10 9 9 9 8 8 9 8 7 3 9 2 1 4 9 5 -2 26 54 0 10 6 18 5 4 8 6 11 5 7 14 11 7 6 4 8 6 11 12 18 14 24 17 16
9 10 9 9 7 8 10 8 6 3 8 4 2 6 8 5 2 9 50 9 5 7 18 4 4 8 7 11 4 10 12 11 7 8 4 6 9 7 13 18 14 21 28 12
10 8 9 10 9 6 10 9 6 3 8 3 -2 4 7 5 6 2 51 22 6 7 16 4 4 8 8 10 4 11 10 10 7 7 6 7 9 7 9 10 19 16 10 34
3 6 9 10 8 10 10 10 7 1 7 4 1 4 7 7 7 5 33 43 5 7 15 5 5 8 9 9 5 12 9 10 8 5 5 7 8 7 7 11 10 16 11 15
1 3 5 10 9 10 10 11 9 4 3 7 7 5 7 6 9 5 19 56 5 8 13 6 6 7 9 8 6 13 8 10 8 7 7 6 9 8 6 9 12 17 10 13
3 3 3 7 9 10 11 10 10 8 7 6 7 7 5 3 8 5 22 58 12 10 13 9 7 8 10 7 8 14 7 10 8 8 7 8 12 9 6 7 11 15 14 20
3 5 3 5 8 8 13 10 11 9 8 6 7 7 2 3 10 6 -2 54 24 8 13 9 8 7 12 6 9 14 8 9 8 7 8 10 10 11 11 6 4 11 13 8
-0 4 6 3 4 7 8 13 12 9 9 6 7 6 2 4 7 10 3 49 36 6 13 10 9 7 12 5 9 14 8 8 9 9 9 9 6 10 15 13 5 -0 4 13
-0 0 7 3 6 5 5 13 12 11 10 7 5 10 1 3 4 11 4 15 55 5 12 11 10 7 11 5 9 14 9 7 8 9 11 12 12 10 11 15 16 10 5 6
-0 1 1 7 5 6 5 13 11 11 10 8 5 11 3 3 5 9 6 7 58 16 9 15 8 7 10 6 9 13 11 8 6 7 10 11 9 10 10 9 14 15 18 18
3 1 1 5 4 6 4 9 9 12 9 9 5 8 5 3 4 6 10 8 22 52 5 14 4 9 8 10 8 11 13 9 8 6 7 8 11 12 13 13 10 7 9 14
2 4 1 2 5 7 4 9 14 12 11 9 6 7 7 3 3 4 9 10 6 39 30 8 9 9 7 11 5 9 14 10 9 6 6 8 6 8 9 11 14 18 14 5
6 2 4 1 5 5 3 6 8 12 13 9 8 8 6 4 3 4 9 10 7 7 45 23 11 5 7 9 6 7 10 14 10 8 7 6 9 8 6 4 2 2 10 18
6 8 4 4 4 6 5 3 6 11 12 10 9 8 7 2 2 5 6 11 12 6 18 45 20 12 7 7 10 3 7 10 12 10 7 6 6 7 8 7 7 11 10 7
5 6 6 4 3 7 5 3 4 9 11 13 10 8 7 3 2 3 3 10 11 12 6 16 45 22 8 7 8 8 4 6 10 12 11 8 6 6 6 8 6 3 3 6
5 7 9 6 2 7 7 3 3 4 15 14 12 8 7 5 3 2 0 8 10 9 11 8 20 40 24 8 8 9 6 4 5 7 12 11 11 6 6 5 5 2 3 3
Height
5882 5879 5874 5869 5864 5859 5853 5847 5841 5836 5832 5826 5820 5813 5804 5794 5782 5769 5752 5738 5724 5716 5712 5705 5698 5692 5685 5678 5670 5663 5656 5648 5640 5632 5625 5616 5607 5599 5590 5581 5573 5566 5559 5553
5881 5877 5872 5867 5863 5858 5851 5845 5839 5835 5829 5824 5817 5808 5799 5789 5777 5760 5744 5727 5717 5713 5707 5702 5696 5690 5683 5676 5669 5661 5653 5644 5637 5629 5620 5611 5602 5592 5582 5573 5564 5555 5547 5540
5878 5875 5871 5867 5862 5855 5849 5843 5838 5833 5827 5820 5814 5806 5795 5783 5768 5751 5732 5718 5712 5710 5705 5700 5693 5687 5681 5674 5666 5658 5650 5642 5635 5627 5617 5606 5595 5585 5575 5564 5554 5544 5534 5527
5877 5873 5869 5864 5859 5853 5848 5842 5836 5831 5824 5817 5809 5800 5789 5777 5761 5743 5725 5715 5711 5707 5702 5697 5691 5686 5680 5672 5664 5655 5647 5640 5631 5621 5610 5599 5589 5577 5565 5553 5540 5528 5516 5508
5876 5871 5867 5862 5857 5851 5847 5841 5835 5828 5822 5814 5804 5796 5783 5771 5756 5740 5724 5714 5710 5708 5701 5695 5690 5684 5678 5670 5662 5653 5645 5636 5627 5617 5606 5595 5583 5571 5557 5541 5526 5511 5498 5489
5873 5869 5865 5860 5855 5849 5843 5839 5833 5826 5819 5811 5801 5790 5780 5767 5753 5738 5721 5713 5710 5705 5700 5693 5688 5683 5676 5667 5659 5651 5643 5634 5624 5615 5604 5592 5579 5565 5548 5532 5513 5496 5486 5479
5871 5867 5863 5858 5852 5846 5840 5834 5828 5822 5814 5808 5798 5789 5777 5764 5750 5734 5721 5714 5709 5704 5699 5692 5687 5682 5675 5666 5658 5650 5642 5632 5622 5612 5601 5589 5575 5557 5540 5521 5501 5487 5477 5469
5869 5865 5860 5855 5850 5844 5838 5833 5827 5820 5814 5806 5797 5786 5775 5760 5746 5731 5719 5713 5707 5702 5696 5692 5687 5680 5673 5665 5656 5649 5640 5630 5620 5610 5599 5586 5570 5552 5534 5514 5494 5480 5468 5460
5867 5862 5857 5853 5848 5843 5837 5831 5826 5820 5813 5804 5795 5785 5773 5758 5744 5728 5715 5710 5705 5701 5695 5690 5685 5679 5671 5663 5656 5648 5639 5629 5619 5608 5598 5584 5568 5550 5531 5511 5492 5479 5467 5458
5865 5860 5856 5851 5846 5841 5835 5830 5823 5816 5808 5801 5793 5782 5770 5758 5744 5727 5715 5711 5706 5700 5693 5689 5684 5677 5670 5662 5654 5646 5636 5627 5617 5607 5596 5583 5567 5549 5531 5513 5495 5481 5469 5459
5862 5858 5854 5848 5843 5838 5833 5827 5821 5815 5807 5798 5789 5780 5770 5757 5743 5729 5716 5710 5705 5699 5693 5687 5682 5676 5669 5661 5653 5644 5636 5626 5617 5607 5596 5583 5568 5552 5534 5517 5501 5486 5474 5465
5860 5855 5851 5847 5841 5836 5830 5825 5819 5812 5806 5798 5789 5781 5768 5756 5743 5730 5716 5708 5703 5698 5692 5687 5681 5675 5668 5661 5653 5644 5636 5627 5617 5608 5597 5585 5571 5556 5538 5523 5508 5494 5481 5472
5859 5854 5850 5845 5841 5834 5829 5823 5817 5812 5805 5797 5787 5779 5767 5755 5743 5731 5718 5707 5702 5696 5691 5686 5681 5674 5667 5661 5653 5644 5636 5627 5618 5609 5599 5588 5574 5560 5545 5530 5515 5502 5490 5480
5857 5852 5847 5843 5837 5832 5827 5822 5815 5810 5804 5797 5788 5777 5766 5754 5741 5729 5717 5705 5700 5695 5690 5685 5681 5675 5668 5661 5654 5645 5636 5628 5620 5610 5601 5590 5579 5565 5550 5536 5523 5510 5499 5488
5855 5851 5846 5841 5836 5830 5825 5820 5814 5809 5803 5795 5787 5778 5767 5755 5743 5730 5718 5703 5700 5694 5689 5684 5681 5675 5668 5661 5654 5645 5637 5630 5621 5612 5603 5593 5581 5568 5555 5543 5530 5518 5506 5495
5853 5850 5845 5840 5835 5829 5824 5818 5812 5808 5801 5794 5786 5777 5767 5756 5743 5731 5719 5705 5700 5696 5690 5686 5681 5675 5668 5662 5656 5647 5639 5631 5623 5614 5606 5596 5585 5572 5560 5549 5537 5525 5513 5501
5851 5848 5844 5839 5834 5828 5823 5817 5811 5806 5799 5793 5784 5776 5767 5756 5743 5733 5721 5707 5699 5695 5690 5686 5682 5677 5670 5665 5658 5649 5642 5633 5625 5616 5608 5599 5589 5577 5566 5555 5544 5532 5520 5508
5849 5845 5842 5838 5832 5828 5822 5816 5810 5804 5798 5791 5783 5776 5767 5756 5746 5733 5721 5708 5699 5696 5691 5686 5683 5677 5671 5666 5659 5651 5643 5635 5627 5619 5611 5602 5593 5582 5570 5560 5550 5540 5528 5517
5845 5843 5839 5836 5831 5826 5820 5814 5809 5803 5797 5790 5783 5776 5767 5758 5747 5736 5725 5712 5700 5696 5691 5688 5683 5678 5673 5667 5659 5652 5645 5638 5630 5623 5615 5607 5597 5586 5576 5566 5555 5545 5535 5524
5841 5839 5837 5833 5829 5824 5819 5813 5808 5802 5797 5789 5783 5776 5767 5760 5750 5739 5728 5717 5704 5696 5693 5688 5683 5678 5673 5668 5662 5654 5647 5641 5634 5627 5619 5610 5600 5591 5582 5573 5563 5552 5542 5532
5837 5835 5833 5830 5826 5822 5817 5811 5806 5801 5798 5788 5782 5775 5768 5761 5752 5741 5731 5720 5708 5698 5693 5687 5685 5680 5675 5670 5664 5657 5650 5644 5638 5631 5622 5614 5605 5596 5588 5579 5569 5559 5549 5540
5832 5831 5830 5827 5823 5820 5815 5810 5805 5800 5793 5787 5782 5775 5769 5762 5754 5744 5734 5724 5713 5702 5694 5689 5685 5681 5676 5671 5666 5660 5653 5647 5641 5634 5626 5619 5611 5603 5595 5586 5577 5567 5557 5548
5827 5827 5826 5824 5821 5817 5813 5808 5803 5798 5792 5787 5781 5775 5769 5763 5755 5746 5737 5727 5717 5709 5698 5691 5686 5682 5678 5673 5668 5662 5656 5649 5643 5637 5630 5623 5616 5609 5602 5594 5585 5577 5567 5558
5821 5821 5821 5820 5818 5814 5810 5806 5801 5796 5791 5786 5781 5775 5769 5763 5757 5749 5740 5731 5721 5713 5703 5693 5687 5683 5678 5674 5668 5664 5659 5653 5646 5640 5634 5628 5622 5615 5608 5601 5593 5585 5577 5568
5816 5815 5816 5815 5813 5810 5807 5804 5799 5794 5789 5785 5780 5775 5769 5764 5758 5751 5744 5735 5726 5716 5707 5698 5689 5683 5679 5675 5671 5666 5662 5657 5650 5644 5637 5631 5626 5620 5614 5607 5601 5594 5586 5578
5809 5810 5811 5810 5809 5807 5804 5800 5797 5792 5788 5784 5779 5774 5768 5763 5759 5753 5746 5739 5730 5720 5711 5704 5694 5685 5680 5676 5672 5668 5663 5659 5654 5647 5641 5635 5629 5624 5618 5612 5606 5600 5592 5584